Location: Newark
(12.6500°N, 8.0000°W)
Time: 03:36:41
(UTC+00:00)

Envisat - Visible Passes

Search period start: 17 October 2019 00:00
Search period end: 27 October 2019 00:00
Orbit: 764 x 766 km, 98.1° (Epoch: 16 October)

Date Brightness Start Highest point End Pass type
(mag) Time Alt. Az. Time Alt. Az. Time Alt. Az.
17 Oct 3.6 19:13:29 10° S 19:18:28 58° W 19:23:27 10° NNW visible
18 Oct 6.9 06:02:32 10° E 06:03:44 11° E 06:04:57 10° ESE visible
18 Oct 3.2 18:36:54 10° SSE 18:41:47 49° ENE 18:46:40 10° N visible
19 Oct 5.0 19:39:38 10° SSW 19:43:56 28° W 19:48:14 10° NW visible
20 Oct 3.1 19:02:09 10° S 19:07:13 80° WSW 19:12:17 10° NNW visible
21 Oct 3.5 18:25:57 10° SE 18:30:34 36° ENE 18:35:11 10° N visible
21 Oct 6.1 20:07:00 10° SW 20:09:26 14° W 20:11:53 10° WNW visible
22 Oct 4.5 19:28:00 10° SSW 19:32:40 38° W 19:37:21 10° NNW visible
23 Oct 2.9 18:50:55 10° SSE 18:55:58 76° ENE 19:01:02 10° N visible
24 Oct 5.7 19:54:43 10° SW 19:58:10 19° W 20:01:39 10° NW visible
25 Oct 3.9 19:16:30 10° S 19:21:25 52° W 19:26:21 10° NNW visible
26 Oct 3.1 18:39:48 10° SSE 18:44:44 56° ENE 18:49:41 10° N visible
